• MPC Preparation (Info)

  • MPEC 2016-N153: 2015 BD518

    The following Minor Planet Electronic Circular may be linked-to from your own Web pages, but must not otherwise be redistributed electronically.

    A form allowing access to any MPEC is at the bottom of this page.


    Read MPEC 2016-N152 Read MPEC 2016-N154


    M.P.E.C. 2016-N153                               Issued 2016 July 15, 20:37 UT
    
         The Minor Planet Electronic Circulars contain information on unusual
             minor planets and routine data on comets.  They are published
        on behalf of Division F of the International Astronomical Union by the
              Minor Planet Center, Smithsonian Astrophysical Observatory,
                              Cambridge, MA 02138, U.S.A.
    
                 Prepared using the Tamkin Foundation Computer Network
    
                                  MPC@CFA.HARVARD.EDU
                URL https://www.minorplanetcenter.net/    ISSN 1523-6714
    
                                      2015 BD518
    
    Observations:
         K15Bp8D  C2012 01 28.46449 08 12 41.886+33 27 23.23         21.7 wLEN153F51
         K15Bp8D  C2012 01 28.47851 08 12 41.700+33 27 23.39         21.4 wLEN153F51
         K15Bp8D  C2012 01 28.49247 08 12 41.514+33 27 23.58         21.5 wLEN153F51
         K15Bp8D  C2012 01 28.50639 08 12 41.330+33 27 23.81         21.6 wLEN153F51
         K15Bp8D  C2012 12 22.54082 08 45 44.381+30 19 22.61         21.6 wLEN153F51
         K15Bp8D  C2012 12 22.55492 08 45 44.242+30 19 23.26         21.6 wLEN153F51
         K15Bp8D  C2012 12 22.56901 08 45 44.113+30 19 23.97         21.7 wLEN153F51
         K15Bp8D  C2012 12 22.58304 08 45 43.981+30 19 24.63         21.8 wLEN153F51
         K15Bp8D  C2014 05 17.27951 08 54 52.726+26 55 49.97         22.1 wLEN153F51
         K15Bp8D  C2014 05 17.28443 08 54 52.776+26 55 49.62         22.1 wLEN153F51
         K15Bp8D  C2014 05 17.28932 08 54 52.824+26 55 49.26         21.8 wLEN153F51
         K15Bp8D  C2014 05 17.29421 08 54 52.856+26 55 48.84         21.9 wLEN153F51
         K15Bp8D* C2015 01 17.41372 09 30 15.072+24 00 06.07         21.6 wLEN153F51
         K15Bp8D  C2015 01 17.42574 09 30 14.938+24 00 06.52         21.5 wLEN153F51
         K15Bp8D  C2015 01 17.43776 09 30 14.809+24 00 07.06         21.5 wLEN153F51
         K15Bp8D  C2015 01 17.44983 09 30 14.675+24 00 07.66         21.5 wLEN153F51
         K15Bp8D  C2015 01 17.57483 09 30 13.293+24 00 13.27         21.5 wLEN153F51
         K15Bp8D  C2015 01 17.58715 09 30 13.158+24 00 13.86         21.5 wLEN153F51
         K15Bp8D  C2015 01 17.59950 09 30 13.020+24 00 14.45         21.4 wLEN153F51
         K15Bp8D  C2015 01 17.61189 09 30 12.890+24 00 14.97         21.6 wLEN153F51
         K15Bp8D  C2015 01 22.39798 09 29 19.635+24 03 51.10         21.4 wLEN153F51
         K15Bp8D  C2015 01 22.41014 09 29 19.485+24 03 51.66         21.5 wLEN153F51
         K15Bp8D  C2015 01 22.42230 09 29 19.350+24 03 52.19         21.4 wLEN153F51
         K15Bp8D  C2015 01 22.43448 09 29 19.187+24 03 52.33         21.4 wLEN153F51
         K15Bp8D  C2015 02 11.35148 09 25 20.532+24 17 14.28         21.9 wLEN153F51
         K15Bp8D  C2015 02 11.36497 09 25 20.368+24 17 14.82         21.6 wLEN153F51
         K15Bp8D  C2015 02 11.37960 09 25 20.193+24 17 15.23         21.6 wLEN153F51
         K15Bp8D  C2015 02 12.34646 09 25 08.389+24 17 47.86         21.6 wLEN153F51
         K15Bp8D  C2015 02 12.35869 09 25 08.236+24 17 48.34         21.6 wLEN153F51
         K15Bp8D  C2015 02 12.37089 09 25 08.103+24 17 48.84         21.6 wLEN153F51
         K15Bp8D  C2015 02 12.38322 09 25 07.942+24 17 49.10         21.5 wLEN153F51
         K15Bp8D  C2015 02 17.33566 09 24 07.947+24 20 24.36         21.6 wLEN153F51
         K15Bp8D  C2015 02 17.34848 09 24 07.794+24 20 24.58         21.4 wLEN153F51
         K15Bp8D  C2015 02 17.36133 09 24 07.636+24 20 25.04         21.7 wLEN153F51
         K15Bp8D  C2015 02 17.37426 09 24 07.483+24 20 25.32         21.6 wLEN153F51
         K15Bp8D  C2015 03 14.26148 09 19 37.686+24 27 07.50         21.7 wLEN153F51
         K15Bp8D  C2015 03 14.27506 09 19 37.561+24 27 07.62         21.7 wLEN153F51
         K15Bp8D  C2015 03 14.28929 09 19 37.422+24 27 07.74         21.6 wLEN153F51
         K15Bp8D  C2015 03 15.24221 09 19 28.777+24 27 08.88         21.6 wLEN153F51
         K15Bp8D  C2015 03 15.25537 09 19 28.653+24 27 08.95         21.5 wLEN153F51
         K15Bp8D  C2015 03 15.26816 09 19 28.545+24 27 08.90         21.9 wLEN153F51
         K15Bp8D  C2015 03 15.28094 09 19 28.430+24 27 08.85         21.6 wLEN153F51
         K15Bp8D  C2015 03 16.24370 09 19 19.855+24 27 09.23         21.7 wLEN153F51
         K15Bp8D  C2015 03 16.25676 09 19 19.731+24 27 09.07         21.6 wLEN153F51
         K15Bp8D  C2015 03 16.26975 09 19 19.617+24 27 09.08         21.8 wLEN153F51
         K15Bp8D  C2015 03 16.28270 09 19 19.502+24 27 09.21         21.7 wLEN153F51
         K15Bp8D  C2015 03 17.24266 09 19 11.128+24 27 08.01         21.5 wLEN153F51
         K15Bp8D  C2015 03 17.25573 09 19 11.010+24 27 08.31         21.7 wLEN153F51
         K15Bp8D  C2015 03 17.26875 09 19 10.898+24 27 07.90         21.7 wLEN153F51
         K15Bp8D  C2015 03 17.28174 09 19 10.780+24 27 07.97         21.8 wLEN153F51
    
    Observer details:
    F51 Pan-STARRS 1, Haleakala.  Observers B. Gibson, T. Goggia, N. Primak,
        A. Schultz, M. Willman.  Measurers K. Chambers, S. Chastel, Y.-T. Chen,
        L. Denneau, H. Flewelling, M. Holman, M. Huber, R. Jedicke, M. Lackner,
        E. Lilly, H.-W. Lin, E. Magnier, M. Micheli, M. Payne, P. Veres,
        R. Wainscoat, C. Waters, R. Weryk.  1.8-m Ritchey-Chretien + CCD.
    
    Orbital elements:
    2015 BD518
    Epoch 2016 July 31.0 TT = JDT 2457600.5                 MPC
    M 355.79432              (2000.0)            P               Q
    n   0.00868994     Peri.  168.60877     -0.89094658     -0.44683717
    a  23.4310309      Node   344.08087     +0.39000718     -0.66163308
    e   0.3052981      Incl.   17.16277     +0.23261253     -0.60214467
    P 113.42           H    9.2           G   0.15           U   1
    Residuals in seconds of arc
    120128 F51  0.0   0.1+    150117 F51  0.0   0.0     150217 F51  0.2+  0.0
    120128 F51  0.0   0.0     150117 F51  0.0   0.1+    150314 F51  0.0   0.2-
    120128 F51  0.0   0.0     150117 F51  0.1+  0.0     150314 F51  0.0   0.1-
    120128 F51  0.0   0.0     150122 F51  0.2+  0.1+    150314 F51  0.0   0.0
    121222 F51  0.1+  0.1-    150122 F51  0.1+  0.1+    150315 F51  0.0   0.1-
    121222 F51  0.0   0.1-    150122 F51  0.2+  0.1+    150315 F51  0.1-  0.1-
    121222 F51  0.0   0.0     150122 F51  0.1-  0.3-    150315 F51  0.0   0.1-
    121222 F51  0.0   0.0     150211 F51  0.0   0.0     150315 F51  0.1+  0.2-
    140517 F51  0.2-  0.1+    150211 F51  0.0   0.1+    150316 F51  0.0   0.1+
    140517 F51  0.0   0.2+    150211 F51  0.1+  0.0     150316 F51  0.1-  0.1-
    140517 F51  0.2+  0.2+    150212 F51  0.1-  0.1-    150316 F51  0.0   0.1-
    140517 F51  0.1+  0.1+    150212 F51  0.1-  0.0     150316 F51  0.0   0.0
    150117 F51  0.1-  0.2+    150212 F51  0.1+  0.1+    150317 F51  0.1-  0.1-
    150117 F51  0.1-  0.1+    150212 F51  0.0   0.1-    150317 F51  0.1-  0.3+
    150117 F51  0.1-  0.0     150217 F51  0.1+  0.1+    150317 F51  0.1-  0.1-
    150117 F51  0.1-  0.1+    150217 F51  0.1+  0.0     150317 F51  0.1-  0.1-
    150117 F51  0.0   0.0     150217 F51  0.1+  0.1+
    
    Ephemeris:
    2015 BD518               a,e,i = 23.43, 0.31, 17                 q = 16.278
    Date    TT    R. A. (2000) Decl.     Delta      r     Elong.  Phase     V
    2016 06 15    09 43 05.8 +19 46 49  16.8483 16.3253    57.5     3.0    21.7
    ...
    2016 06 30    09 46 01.4 +19 23 48  17.0375 16.3227    44.1     2.5    21.7
    ...
    2016 07 08    09 47 48.9 +19 10 43  17.1217 16.3213    37.0     2.1    21.7
    ...
    2016 07 14    09 49 14.8 +19 00 37  17.1760 16.3203    31.7     1.9    21.7
    2016 07 15    09 49 29.5 +18 58 55  17.1843 16.3201    30.9     1.8    21.7
    2016 07 16    09 49 44.3 +18 57 12  17.1924 16.3199    30.0     1.8    21.7
    ...
    2016 07 22    09 51 15.1 +18 46 53  17.2359 16.3189    24.8     1.5    21.6
    ...
    2016 07 30    09 53 20.7 +18 32 56  17.2806 16.3176    17.9     1.1    21.6
    ...
    2016 08 14    09 57 25.4 +18 06 39  17.3211 16.3152     6.5     0.4    21.5
    
    A. U. Tomatic                (C) Copyright 2016 MPC           M.P.E.C. 2016-N153
    

    Read MPEC 2016-N152 Read MPEC 2016-N154


    MPEC number:

    Enter an MPEC number in one of the following forms:

    • 1997-B01 (the full form)
    • J97B01 (the packed version of the full form)
    • B01 (the abbreviated form)